Content
SEND FEEDBACK

Daily
Averages
Monthly
Summary
India

AHMEDABAD, INDIA


Home > Asia > India
Elevation: 180 feet     Latitude: 23 04N     Longitude: 072 38E

WEATHER
 
SELECT A DAY
Number of Records: 216,330;   Date Range: 7/1/96 - 11/26/14
 
SHARE

PRINT THIS DATA

[ ← Previous Day ]
WEATHER ALMANAC - JANUARY 10, 2013
[ Next Day → ]
[ °C ]   °F
Weather ElementAverageHighLow
Temperature64.2 °F84.2 °F (2:40 pm)48.2 °F (6:40 am)
Dewpoint42.8 °F52 °F (8:30 pm)33.8 °F (9:10 am)
Humidity49.2 %82 % (4:40 am)21 % (2:10 pm)
Barometer29.97 in30.06 in (11:30 am)29.92 in (2:40 pm)
Wind Speed4.3 mph8.1 mph (2:10 pm)
Weather ElementAverage
Visibility2.6 mi
Wind DirectionNE (41.3 °)

Weather ElementTotal
Precipitation---
Cooling Degree Days1.2 (Base 65)
Growing Degree Days16.2 (Base 50)
Averaged from 41 records on January 10, 2013
WEATHER CONDITIONS BREAKOUT
WIND DIRECTION BREAKOUT
WEATHER BY HOUR - JANUARY 10, 2013
[ °C ]   °F
Local TimeTemperatureDewpointHumidityBarometerVisibilityWind DirectionWind SpeedGust SpeedPrecipitationEventsConditions
12:40 AM57.2 °F41.0 °F55 %29.95 in2.5 miENE (70°)5.8 mphSmoke
1:10 AM57.2 °F39.2 °F51 %29.95 in2.5 miENE (60°)4.6 mphSmoke
1:40 AM55.4 °F41.0 °F58 %29.95 in2.5 miENE (60°)3.5 mphSmoke
2:10 AM53.6 °F42.8 °F67 %29.95 in2.5 miNE (40°)4.6 mphHaze
2:30 AM53.0 °F46.0 °F69 %29.99 in2.0 miCalm
2:40 AM53.6 °F44.6 °F72 %29.95 in2.5 miNNE (20°)4.6 mphHaze
3:10 AM53.6 °F41.0 °F62 %29.95 in2.5 miNNE (30°)3.5 mphHaze
3:40 AM51.8 °F44.6 °F76 %29.95 in2.5 miNorth (10°)3.5 mphHaze
4:10 AM51.8 °F42.8 °F71 %29.95 in2.5 miNorth (10°)3.5 mphHaze
4:40 AM50.0 °F44.6 °F82 %29.95 in2.5 miNorth (10°)3.5 mphHaze
5:10 AM50.0 °F42.8 °F76 %29.95 in2.5 miNE (40°)3.5 mphHaze
5:30 AM54.0 °F44.0 °F59 %29.98 in2.0 miCalm
5:40 AM50.0 °F42.8 °F76 %29.95 in2.5 miNE (40°)3.5 mphHaze
6:10 AM50.0 °F39.2 °F66 %29.98 in2.5 miNNE (30°)3.5 mphHaze
6:40 AM48.2 °F39.2 °F71 %29.98 in2.2 miCalmHaze
7:40 AM50.0 °F39.2 °F66 %30.01 in1.6 miENE (70°)3.5 mphSmoke
8:10 AM51.8 °F37.4 °F58 %30.01 in1.2 miNNE (20°)3.5 mphSmoke
9:10 AM64.4 °F33.8 °F32 %30.04 in1.6 miENE (60°)4.6 mphSmoke
10:10 AM69.8 °F37.4 °F31 %30.04 in2.5 miENE (70°)5.8 mphSmoke
10:40 AM71.6 °F39.2 °F31 %30.04 in2.5 miENE (60°)5.8 mphSmoke
11:30 AM76.0 °F45.0 °F23 %30.06 in2.0 miEast (90°)3.5 mphSmoke
11:40 AM77.0 °F41.0 °F28 %30.01 in3.1 miENE (70°)5.8 mphSmoke
12:10 PM78.8 °F41.0 °F26 %30.01 in3.1 miEast (80°)5.8 mphSmoke
12:40 PM80.6 °F42.8 °F26 %29.98 in3.7 miENE (70°)5.8 mph
1:10 PM80.6 °F41.0 °F24 %29.98 in3.7 miENE (60°)5.8 mph
2:10 PM82.4 °F39.2 °F21 %29.95 in3.7 miNE (50°)8.1 mph
2:40 PM84.2 °F41.0 °F22 %29.92 in3.7 miENE (70°)6.9 mph
4:10 PM84.2 °F41.0 °F22 %29.92 in3.7 miNE (50°)6.9 mph
4:40 PM84.2 °F41.0 °F22 %29.92 in3.7 miNE (50°)6.9 mph
5:10 PM82.4 °F41.0 °F23 %29.92 in3.7 miNE (40°)6.9 mph
5:30 PM81.0 °F49.0 °F22 %29.96 in2.0 miNorth4.6 mph
7:10 PM71.6 °F42.8 °F35 %29.95 in2.5 miNNE (30°)3.5 mphSmoke
7:40 PM69.8 °F46.4 °F43 %29.95 in2.5 miNorth (10°)3.5 mphSmoke
8:10 PM66.2 °F44.6 °F46 %29.98 in2.5 miNNE (30°)3.5 mphSmoke
8:30 PM63.0 °F52.0 °F59 %29.99 in2.0 miNE (50°)3.5 mphHaze
9:10 PM62.6 °F50.0 °F63 %29.98 in2.5 miNNE (20°)4.6 mphSmoke
9:40 PM62.6 °F46.4 °F55 %29.98 in2.5 miNE (40°)4.6 mphSmoke
10:10 PM62.6 °F50.0 °F63 %29.98 in2.5 miNorth (10°)3.5 mphSmoke
10:40 PM62.6 °F46.4 °F55 %29.98 in2.5 miNNE (30°)3.5 mphSmoke
11:10 PM62.6 °F46.4 °F55 %29.98 in2.5 miNNE (30°)3.5 mphSmoke
11:40 PM60.8 °F44.6 °F55 %29.98 in2.5 miNNE (30°)4.6 mphSmoke
Hourly data recorded from VAAH, located miles away from Ahmedabad, India







STORIES FROM OUR PARTNERS